[[{"header":{"parameterUnit":"m.s-1","parameterCategory":1,"la1":30.2991,"la2":30.254,"lo1":-89.0895,"lo2":-89.0444,"dx":0.0017,"dy":0.0017,"nx":28,"ny":28,"refTime":"2023-01-30T15:00:00:Z","depth":0,"parameterNumber":2,"parameterNumberName":"U-component_of_WINDS"},"data":[0,0,0,0,0,0,0,0,0,0,0,0,0,0,0,0,0,0,0,0,0,0,0,0,0,0,0,0,0,0,0,0,0,0,0,0,0,0,0,0,0,0,0,0,0,0,0,0,0,0,0,0,0,0,0,0,0,0,1.129,1.129,0,1.1307,1.1307,1.1307,1.1271,1.127,1.1268,1.1267,1.1283,1.1285,1.1286,0,0,0,0,0,0,0,0,0,0,0,0,0,1.1227,1.1229,1.129,1.129,1.1291,1.1307,1.1307,1.1307,1.1271,1.127,1.1268,1.1267,1.1283,1.1285,1.1286,0,0,0,0,0,0,0,0,0,0,0,0,0,1.125,1.1229,1.129,1.1275,1.1273,1.1307,1.1307,1.1307,1.1271,1.127,1.1268,1.1266,1.1282,1.1284,1.1287,1.1335,0,0,1.1293,1.1294,0,0,0,0,0,0,0,0,1.1249,1.1253,1.1277,1.1276,1.1274,1.1285,1.129,1.1317,1.1272,1.1272,1.1267,1.1265,1.1285,1.1287,1.1294,1.1336,1.1337,1.1294,1.1295,1.1296,1.1297,0,0,0,0,0,0,0,1.1247,1.1252,1.1297,1.1277,1.1276,1.1267,1.1268,1.1295,1.1288,1.1272,1.1269,1.1272,1.1284,1.1292,1.1294,1.1337,1.1294,1.1296,1.1297,1.1298,1.142,1.1422,0,0,0,0,0,0,1.1248,1.1251,1.1296,1.1297,1.1257,1.1269,1.1271,1.1283,1.1288,1.1287,1.1273,1.127,1.1289,1.1291,1.1294,1.1352,1.1296,1.1298,1.1299,1.1418,1.1421,1.1423,0,0,0,0,0,0,1.1247,1.1252,1.1295,1.1273,1.1278,1.1272,1.1287,1.1284,1.1292,1.1289,1.1287,1.1282,1.1288,1.1291,1.1326,1.1352,1.1299,1.1301,1.1416,1.1419,1.1422,1.1467,0,0,0,0,0,0,1.1245,1.1252,1.1271,1.1274,1.1279,1.1327,1.1288,1.1286,1.1296,1.1292,1.1297,1.1296,1.1286,1.1322,1.1328,1.1354,1.1303,1.1414,1.1417,1.1421,1.1463,1.1471,1.1478,0,0,0,0,0,1.1243,1.1283,1.1272,1.1277,1.1302,1.1328,1.1331,1.132,1.1298,1.1317,1.1315,1.1296,1.1348,1.1326,1.1332,1.1359,1.1412,1.1416,1.142,1.146,1.147,1.1478,0,0,0,0,0,0,1.1282,1.1283,1.1271,1.1313,1.1321,1.1322,1.1345,1.133,1.1344,1.134,1.1325,1.1326,1.1363,1.1365,1.134,1.1407,1.1376,1.1382,1.1405,1.1414,1.1421,1.142,1.1305,0,0,0,0,0,1.1296,1.1317,1.1316,1.1353,1.1358,1.1351,1.1362,1.1352,1.136,1.1363,1.1363,1.1371,1.1389,1.1402,1.1418,1.1464,1.1464,1.1485,1.1493,1.1499,1.1504,1.1528,1.1537,1.1437,1.1437,1.1437,0,0,1.1324,1.1327,1.1341,1.1361,1.1366,1.1389,1.1354,1.1379,1.1395,1.1367,1.1399,1.14,1.1407,1.1448,1.1465,1.145,1.1532,1.1504,1.1509,1.1511,1.1533,1.1543,1.1551,1.144,1.1439,1.1439,0,0,1.1387,1.1391,1.1423,1.1429,1.1437,1.1432,1.144,1.1444,1.1443,1.1476,1.1455,1.1474,1.1505,1.1512,1.1519,1.1585,1.1568,1.1591,1.1629,1.1653,1.1661,1.1668,1.1691,1.17,1.1596,1.1596,1.1596,0,1.1421,1.1453,1.1441,1.1467,1.1477,1.1452,1.1484,1.149,1.1504,1.1511,1.1493,1.1533,1.1536,1.1578,1.1594,1.1601,1.1609,1.159,1.1661,1.1668,1.1674,1.1696,1.1705,1.1599,1.1598,1.1598,1.1598,0,1.1495,1.1518,1.1542,1.1556,1.1568,1.1597,1.1589,1.1603,1.1592,1.1589,1.1623,1.1626,1.1643,1.1652,1.1642,1.1692,1.1683,1.1664,1.1633,1.1687,1.1707,1.1716,1.1603,1.1602,1.1601,1.16,0,0,1.1582,1.1589,1.1598,1.1605,1.1612,1.163,1.1658,1.1675,1.1687,1.1697,1.172,1.1747,1.173,1.1738,1.1729,1.175,1.1802,1.1728,1.1728,1.1741,1.1857,1.1872,1.1882,1.1791,1.1792,1.1793,1.1857,0,1.1644,1.1692,1.1682,1.173,1.1751,1.1728,1.1753,1.176,1.1758,1.1776,1.1773,1.1793,1.1768,1.1773,1.1793,1.1791,1.1825,1.1787,1.1812,1.1813,1.181,1.1892,1.1907,1.1967,1.1865,1.1866,1.1867,0,1.1723,1.1737,1.1786,1.1791,1.1799,1.1822,1.1836,1.1853,1.1861,1.1858,1.1868,1.1855,1.1882,1.1851,1.1889,1.1863,1.1873,1.1874,1.1876,1.1877,1.1843,1.1896,1.1985,1.1994,1.1879,1.1878,1.1878,0,1.1782,1.1812,1.1846,1.1852,1.1858,1.1875,1.1878,1.1884,1.1895,1.1908,1.1915,1.1931,1.194,1.1952,1.1943,1.1921,1.1982,1.1951,1.198,1.1981,1.1994,1.1993,1.2086,1.2001,1.2001,1.2,1.2,0,1.1852,1.1883,1.1873,1.1893,1.1928,1.1916,1.195,1.1951,1.1957,1.1977,1.1958,1.1978,1.1965,1.1983,1.1976,1.2009,1.2013,1.2011,1.2009,1.2012,1.2013,1.2018,1.2014,1.2003,1.2002,1.2002,1.2001,0,1.1923,1.1917,1.1953,1.1956,1.1958,1.1983,1.1986,1.2005,1.2002,1.2028,1.2033,1.2028,1.2049,1.2041,1.2063,1.2059,1.21,1.2092,1.2097,1.2095,1.2125,1.2123,1.2225,1.2238,1.2145,1.2145,1.2146,0,1.1968,1.1991,1.1998,1.201,1.2015,1.2036,1.2047,1.2036,1.2048,1.206,1.2077,1.2097,1.2111,1.2145,1.2144,1.216,1.2153,1.2188,1.2155,1.2158,1.2153,1.2152,1.2154,1.2194,1.2195,1.2196,1.2197,0,1.2048,1.2045,1.2062,1.2078,1.2093,1.2105,1.2116,1.2127,1.2117,1.2131,1.2153,1.2164,1.2187,1.2206,1.2221,1.2224,1.2209,1.2207,1.2215,1.2218,1.222,1.222,1.2115,1.2204,1.2204,1.2203,1.2203,1.2202,1.2107,1.2128,1.2135,1.2155,1.2162,1.2173,1.2191,1.2191,1.2208,1.2226,1.2219,1.2243,1.2251,1.2269,1.2275,1.2293,1.228,1.2291,1.2294,1.2297,1.2301,1.2218,1.2296,1.2296,1.2296,1.2296,1.2295,0,1.2187,1.2191,1.2209,1.2225,1.2241,1.2226,1.2237,1.2251,1.2273,1.2281,1.2296,1.2321,1.234,1.234,1.2357,1.2372,1.2365,1.2377,1.2375,1.2376,1.2312,1.2303,1.2382,1.2382,1.2382,1.2382,1.2382,1.2382,1.223,1.2263,1.226,1.2297,1.23,1.2325,1.2332,1.2342,1.2349,1.2377,1.2393,1.2393,1.2398,1.2416,1.2432,1.2431,1.2438,1.2453,1.2449,1.2389,1.2381,1.2372,1.2364,1.2454,1.2454,1.2512,1.2513,1.2513]},{"header":{"parameterUnit":"m.s-1","parameterCategory":1,"la1":30.2991,"la2":30.254,"lo1":-89.0895,"lo2":-89.0444,"dx":0.0017,"dy":0.0017,"nx":28,"ny":28,"refTime":"2023-01-30T15:00:00:Z","depth":0,"parameterNumber":3,"parameterNumberName":"V-component_of_WINDS"},"data":[0,0,0,0,0,0,0,0,0,0,0,0,0,0,0,0,0,0,0,0,0,0,0,0,0,0,0,0,0,0,0,0,0,0,0,0,0,0,0,0,0,0,0,0,0,0,0,0,0,0,0,0,0,0,0,0,0,0,1.5318,1.5317,0,1.5264,1.5264,1.5263,1.5238,1.5238,1.5238,1.5238,1.5179,1.5177,1.5175,0,0,0,0,0,0,0,0,0,0,0,0,0,1.5394,1.5393,1.5318,1.5317,1.5317,1.5265,1.5264,1.5263,1.5238,1.5238,1.5238,1.5238,1.5179,1.5177,1.5175,0,0,0,0,0,0,0,0,0,0,0,0,0,1.5353,1.5392,1.5318,1.5298,1.5296,1.5265,1.5264,1.5263,1.5238,1.5238,1.5238,1.5238,1.518,1.5177,1.5175,1.5159,0,0,1.5168,1.5167,0,0,0,0,0,0,0,0,1.5355,1.535,1.5302,1.5299,1.5297,1.5258,1.5269,1.5228,1.5238,1.526,1.5238,1.5238,1.5205,1.52,1.519,1.5156,1.5153,1.5167,1.5166,1.5165,1.5164,0,0,0,0,0,0,0,1.5358,1.5352,1.5297,1.5301,1.5298,1.529,1.5284,1.5261,1.5232,1.5258,1.5256,1.525,1.5203,1.5192,1.5188,1.5152,1.5167,1.5165,1.5164,1.5163,1.5101,1.5101,0,0,0,0,0,0,1.5365,1.5355,1.5298,1.5295,1.5327,1.5289,1.5282,1.527,1.5233,1.5227,1.525,1.5249,1.5196,1.5191,1.5186,1.5164,1.5165,1.5163,1.5161,1.5101,1.5101,1.5101,0,0,0,0,0,0,1.5367,1.536,1.5301,1.5324,1.5316,1.5287,1.5274,1.5269,1.5258,1.5227,1.5221,1.5245,1.5196,1.519,1.5166,1.5162,1.5161,1.5159,1.5101,1.5101,1.5101,1.512,0,0,0,0,0,0,1.5369,1.5361,1.5355,1.5325,1.5315,1.5283,1.5274,1.5268,1.5255,1.5253,1.522,1.5215,1.5196,1.517,1.5163,1.5158,1.5157,1.5102,1.5101,1.5101,1.512,1.512,1.5121,0,0,0,0,0,1.5372,1.5362,1.5355,1.5349,1.5308,1.5283,1.5277,1.5257,1.5255,1.5248,1.5228,1.5216,1.5163,1.5167,1.516,1.5154,1.5102,1.5101,1.5101,1.5119,1.512,1.5121,0,0,0,0,0,0,1.5391,1.5358,1.535,1.533,1.531,1.5278,1.527,1.5259,1.5237,1.5236,1.5211,1.5204,1.5182,1.5165,1.5171,1.5136,1.5131,1.5129,1.5148,1.5148,1.5149,1.5153,1.5155,0,0,0,0,0,1.5394,1.5378,1.5348,1.5334,1.5324,1.5299,1.5287,1.5273,1.525,1.5241,1.5219,1.5196,1.5174,1.516,1.5138,1.5117,1.5109,1.5109,1.511,1.5111,1.5109,1.5096,1.5096,1.5099,1.5099,1.5099,0,0,1.5398,1.5377,1.5368,1.5337,1.532,1.5302,1.5291,1.5273,1.5259,1.5238,1.5214,1.5197,1.517,1.5147,1.5136,1.5133,1.5107,1.511,1.5111,1.5109,1.5096,1.5095,1.5095,1.5099,1.5099,1.5099,0,0,1.5397,1.538,1.5366,1.5349,1.5323,1.5306,1.5303,1.5273,1.5262,1.5238,1.5222,1.5204,1.5167,1.5148,1.5134,1.5125,1.5113,1.5118,1.5122,1.511,1.5109,1.5109,1.5106,1.5105,1.5117,1.5117,1.5117,0,1.5405,1.5379,1.536,1.5343,1.5329,1.531,1.5295,1.5279,1.5246,1.5236,1.5234,1.5187,1.5167,1.514,1.5138,1.5127,1.5121,1.5122,1.5111,1.5111,1.511,1.5106,1.5105,1.5118,1.5118,1.5118,1.5118,0,1.539,1.5372,1.5364,1.5335,1.532,1.5304,1.5281,1.5268,1.5255,1.5238,1.5214,1.519,1.5162,1.5155,1.5142,1.5125,1.5124,1.5117,1.5111,1.5111,1.5107,1.5105,1.5119,1.5119,1.5119,1.5118,0,0,1.54,1.5361,1.5358,1.5345,1.5315,1.53,1.5282,1.5257,1.5246,1.5224,1.5208,1.5177,1.5171,1.5154,1.5139,1.5128,1.5122,1.5122,1.512,1.5122,1.5101,1.5107,1.5106,1.5114,1.5113,1.5113,1.5103,0,1.5394,1.5364,1.5346,1.5322,1.5305,1.5287,1.5271,1.525,1.5234,1.5215,1.5196,1.5175,1.5168,1.5158,1.5146,1.5125,1.5117,1.5126,1.5097,1.5096,1.5105,1.5104,1.511,1.5102,1.5102,1.5102,1.5101,0,1.5384,1.5364,1.5339,1.5311,1.5303,1.529,1.5265,1.5249,1.5224,1.5213,1.5195,1.5179,1.5158,1.5155,1.5125,1.5132,1.5119,1.5106,1.5105,1.5102,1.5099,1.51,1.5099,1.5098,1.5099,1.5099,1.5099,0,1.5393,1.536,1.5341,1.533,1.5297,1.5288,1.5273,1.5249,1.5235,1.5213,1.5203,1.5178,1.5165,1.5145,1.5123,1.5123,1.5095,1.509,1.5084,1.5085,1.5079,1.5079,1.5076,1.5071,1.5071,1.5071,1.5071,0,1.5388,1.5374,1.5345,1.5333,1.5316,1.5294,1.5277,1.5261,1.5239,1.5223,1.5205,1.5189,1.5161,1.5142,1.5124,1.5102,1.5096,1.5085,1.508,1.5086,1.5088,1.5078,1.5077,1.5071,1.5071,1.5071,1.5071,0,1.5396,1.5376,1.5354,1.5325,1.5317,1.5306,1.528,1.5267,1.525,1.5229,1.5223,1.5195,1.5171,1.5148,1.5115,1.5103,1.5081,1.5075,1.509,1.5087,1.5083,1.5083,1.5072,1.5069,1.5067,1.5067,1.5067,0,1.5395,1.5383,1.5353,1.5342,1.5328,1.531,1.5296,1.5274,1.526,1.5231,1.5221,1.5196,1.5175,1.5138,1.5114,1.5089,1.5082,1.5079,1.5077,1.5084,1.5081,1.5082,1.508,1.508,1.508,1.508,1.508,0,1.5394,1.5385,1.5366,1.5344,1.5329,1.531,1.529,1.5281,1.5255,1.524,1.5216,1.52,1.5168,1.5143,1.5115,1.5098,1.5084,1.5081,1.5078,1.5084,1.5094,1.5088,1.5092,1.5081,1.5081,1.5081,1.5081,1.5081,1.5397,1.5386,1.5363,1.5343,1.5326,1.5308,1.5295,1.5276,1.5257,1.523,1.5217,1.5194,1.5168,1.513,1.5113,1.5093,1.5089,1.5085,1.5084,1.5083,1.5085,1.5097,1.5087,1.5087,1.5087,1.5087,1.5087,0,1.5395,1.538,1.5361,1.5335,1.5319,1.531,1.5287,1.5274,1.5254,1.5232,1.5212,1.5184,1.516,1.5135,1.5109,1.5097,1.509,1.5091,1.5092,1.5088,1.5089,1.5094,1.5097,1.5097,1.5097,1.5097,1.5097,1.5097,1.5392,1.5373,1.5361,1.5333,1.5317,1.5295,1.5283,1.5266,1.5248,1.5219,1.52,1.5184,1.516,1.5132,1.5109,1.5102,1.5093,1.5095,1.5086,1.5088,1.5088,1.5087,1.5091,1.5094,1.5094,1.5086,1.5086,1.5086]}]]